Date_and_time,latitude,longitude,wind_speed,RelWindDirFrom,WindDirFrom,air_pressure,air_temperature,relative_humidity,Temp,platform_speed_wrt_ground,air_pressure_at_mean_sea_level,platform_orientation
2019-02-11 23:50,50.6304466666667,-96.98077,5.5,6.6,5,995.82,-14.1,80,0.48,0.0,1025.47,360.0
2019-02-12 00:00,50.63045,-96.980795,6.4,7.6,7,995.80,-14.1,81,0.48,0.0,1025.47,281.8
2019-02-12 00:10,50.6304483333333,-96.9807683333333,6.0,7.5,9,995.86,-14.1,83,0.48,0.0,1025.53,281.8
2019-02-12 00:20,50.6304483333333,-96.980765,5.2,6.3,10,995.97,-14.1,84,0.48,0.0,1025.64,281.8
2019-02-12 00:30,50.6304466666667,-96.9807666666667,5.0,6.0,10,995.98,-14.0,86,0.48,0.0,1025.65,281.8
2019-02-12 00:40,50.630465,-96.9807666666667,5.2,6.1,11,995.95,-13.9,87,0.48,0.0,1025.60,281.8
2019-02-12 00:50,50.6304466666667,-96.9807666666667,4.6,5.3,10,996.03,-13.8,89,0.48,0.0,1025.67,281.8
2019-02-12 01:00,50.6304433333333,-96.980765,4.6,5.2,16,996.03,-13.5,91,0.49,0.0,1025.66,360.0
2019-02-12 01:10,50.63044,-96.9807716666667,4.8,5.4,28,995.97,-13.1,93,0.49,0.0,1025.57,360.0
2019-02-12 01:20,50.630445,-96.9807733333333,5.3,5.9,34,995.85,-12.8,94,0.48,0.0,1025.42,360.0
2019-02-12 01:30,50.6304433333333,-96.9807716666667,5.0,6.0,31,995.80,-12.7,96,0.48,0.0,1025.36,360.0
2019-02-12 01:40,50.630445,-96.9807733333333,5.0,5.7,20,995.71,-12.8,96,0.48,0.0,1025.26,360.0
2019-02-12 01:50,50.630445,-96.9807733333333,5.1,5.7,33,995.60,-12.4,98,0.49,0.0,1025.13,360.0
2019-02-12 02:00,50.630445,-96.9807733333333,5.3,6.9,28,995.46,-12.4,98,0.48,0.0,1024.99,270.0
2019-02-12 02:10,50.630445,-96.98077,5.1,7.2,27,995.34,-12.1,99,0.48,0.0,1024.85,270.0
2019-02-12 02:20,50.630445,-96.98077,5.4,6.0,9,995.22,-12.5,99,0.48,0.0,1024.74,270.0
2019-02-12 02:30,50.630445,-96.9807716666667,5.2,5.6,11,995.14,-12.6,99,0.48,0.0,1024.66,270.0
2019-02-12 02:40,50.6304466666667,-96.9807716666667,5.2,5.6,10,995.09,-12.7,99,0.48,0.0,1024.61,270.0
2019-02-12 02:50,50.6304466666667,-96.9807733333333,5.0,5.4,13,995.01,-12.6,99,0.46,0.0,1024.50,270.0
2019-02-12 03:00,50.6304516666667,-96.98076,5.0,5.4,12,994.98,-12.5,99,0.44,0.0,1024.44,90.0
2019-02-12 03:10,50.6304483333333,-96.98076,5.1,5.5,18,994.92,-12.4,99,0.44,0.0,1024.36,90.0
2019-02-12 03:20,50.6304616666667,-96.9807783333333,5.1,5.4,20,994.89,-12.3,99,0.45,0.0,1024.31,90.0
2019-02-12 03:30,50.63046,-96.9807733333333,5.7,6.1,19,994.89,-12.3,99,0.44,0.0,1024.32,90.0
2019-02-12 03:40,50.6304533333333,-96.9807666666667,6.3,6.7,16,994.84,-12.5,99,0.43,0.0,1024.25,90.0
2019-02-12 03:50,50.6304533333333,-96.9807683333333,6.4,7.0,20,994.81,-12.6,99,0.44,0.0,1024.23,90.0
2019-02-12 04:00,50.6304516666667,-96.9807683333333,6.2,6.7,17,994.78,-12.8,99,0.45,0.0,1024.19,360.0
2019-02-12 04:10,50.6304516666667,-96.9807683333333,5.5,6.1,18,994.77,-13.1,99,0.45,0.0,1024.23,360.0
2019-02-12 04:20,50.6304516666667,-96.9807683333333,5.8,6.5,19,994.71,-13.2,99,0.44,0.0,1024.17,360.0
2019-02-12 04:30,50.63047,-96.9807833333333,5.9,6.4,20,994.64,-13.3,99,0.41,0.0,1024.12,360.0
2019-02-12 04:40,50.6304633333333,-96.98078,5.0,5.6,26,994.58,-13.3,99,0.40,0.0,1024.04,360.0
2019-02-12 04:50,50.6304583333333,-96.9807633333333,4.8,5.3,24,994.46,-13.2,99,0.38,0.0,1023.91,360.0
2019-02-12 05:00,50.6304533333333,-96.9807633333333,5.1,5.8,18,994.34,-13.4,99,0.38,0.0,1023.79,14.5
2019-02-12 05:10,50.630455,-96.98076,5.7,6.1,17,994.26,-13.5,99,0.40,0.0,1023.71,14.5
2019-02-12 05:20,50.6304566666667,-96.98076,5.5,6.2,16,994.20,-13.5,99,0.42,0.0,1023.65,14.5
2019-02-12 05:30,50.6304583333333,-96.98077,5.2,6.4,22,994.15,-13.3,99,0.44,0.0,1023.60,14.5
2019-02-12 05:40,50.63046,-96.9807716666667,5.0,5.5,24,994.03,-13.0,99,0.46,0.0,1023.46,14.5
2019-02-12 05:50,50.6304616666667,-96.980775,5.6,6.1,16,993.98,-13.0,99,0.47,0.0,1023.42,14.5
2019-02-12 06:00,50.63046,-96.9807783333333,6.1,6.8,18,993.90,-12.7,99,0.48,0.0,1023.34,286.8
2019-02-12 06:10,50.63046,-96.9807733333333,6.3,6.8,17,993.87,-12.6,99,0.48,0.0,1023.31,286.8
2019-02-12 06:20,50.63046,-96.9807733333333,5.9,6.5,12,993.87,-12.5,99,0.48,0.0,1023.31,286.8
2019-02-12 06:30,50.6304533333333,-96.980765,5.3,6.1,11,993.86,-12.4,99,0.49,0.0,1023.29,286.8
2019-02-12 06:40,50.6304566666667,-96.9807716666667,4.9,5.3,13,993.82,-12.1,99,0.49,0.0,1023.23,286.8
2019-02-12 06:50,50.6304533333333,-96.9807716666667,4.4,5.3,10,993.69,-12.0,99,0.48,0.0,1023.10,286.8
2019-02-12 07:00,50.6304516666667,-96.9807733333333,4.1,4.5,9,993.61,-11.7,99,0.49,0.0,1023.01,270.0
2019-02-12 07:10,50.6304566666667,-96.9807716666667,3.9,4.3,11,993.52,-11.6,99,0.49,0.0,1022.91,270.0
2019-02-12 07:20,50.6304533333333,-96.9807683333333,3.0,4.0,6,993.44,-11.5,99,0.49,0.0,1022.81,270.0
2019-02-12 07:30,50.6304433333333,-96.9807583333333,2.2,2.7,22,993.38,-11.1,99,0.49,0.0,1022.71,270.0
2019-02-12 07:40,50.630445,-96.9807583333333,3.2,4.1,21,993.36,-11.1,99,0.49,0.0,1022.69,270.0
2019-02-12 07:50,50.6304466666667,-96.9807583333333,3.8,4.1,15,993.37,-11.3,99,0.49,0.0,1022.69,270.0
2019-02-12 08:00,50.6304483333333,-96.9807616666667,4.0,5.4,14,993.38,-11.3,99,0.49,0.0,1022.69,131.7
2019-02-12 08:10,50.63045,-96.9807616666667,6.7,7.7,10,993.35,-11.5,99,0.49,0.0,1022.67,131.7
2019-02-12 08:20,50.6304566666667,-96.9807783333333,6.3,7.4,15,993.32,-11.7,99,0.49,0.0,1022.65,131.7
2019-02-12 08:30,50.63044,-96.980765,6.0,6.7,11,993.26,-11.9,99,0.49,0.0,1022.58,131.7
2019-02-12 08:40,50.63045,-96.980765,5.8,6.6,17,993.17,-11.7,99,0.50,0.0,1022.47,131.7
2019-02-12 08:50,50.6304566666667,-96.980755,5.5,6.3,15,993.13,-11.7,99,0.50,0.0,1022.41,131.7
2019-02-12 09:00,50.6304583333333,-96.9807583333333,6.2,7.2,12,993.09,-11.7,99,0.50,0.0,1022.37,90.0
2019-02-12 09:10,50.6304566666667,-96.9807566666667,5.5,6.0,13,993.04,-11.8,99,0.50,0.0,1022.31,90.0
2019-02-12 09:20,50.6304566666667,-96.98076,5.3,5.8,10,992.90,-11.9,99,0.50,0.0,1022.16,90.0
2019-02-12 09:30,50.6304566666667,-96.980765,5.3,6.2,20,992.74,-11.7,99,0.50,0.0,1021.98,90.0
2019-02-12 09:40,50.6304433333333,-96.9807666666667,5.5,5.9,18,992.63,-11.9,99,0.50,0.0,1021.88,90.0
2019-02-12 09:50,50.630475,-96.9807783333333,5.3,6.0,19,992.51,-11.7,99,0.50,0.0,1021.75,90.0
2019-02-12 10:00,50.6304533333333,-96.9807633333333,5.2,5.8,10,992.40,-11.6,99,0.50,0.0,1021.64,90.0
2019-02-12 10:10,50.63046,-96.9807666666667,4.7,5.6,7,992.26,-11.5,99,0.50,0.0,1021.51,90.0
2019-02-12 10:20,50.63046,-96.9807666666667,5.2,6.2,6,992.20,-11.4,99,0.51,0.0,1021.44,90.0
2019-02-12 10:30,50.6304583333333,-96.98077,4.7,5.5,1,992.21,-11.5,99,0.51,0.0,1021.45,90.0
2019-02-12 10:40,50.6304583333333,-96.98077,4.9,5.6,4,992.20,-11.4,99,0.51,0.0,1021.44,90.0
2019-02-12 10:50,50.6304583333333,-96.98077,5.0,5.8,5,992.17,-11.4,99,0.51,0.0,1021.40,90.0
2019-02-12 11:00,50.6304566666667,-96.98077,5.1,5.7,9,992.12,-11.3,99,0.51,0.0,1021.35,311.7
2019-02-12 11:10,50.6304583333333,-96.9807566666667,5.1,5.7,8,992.16,-11.1,99,0.51,0.0,1021.39,311.7
2019-02-12 11:20,50.6304566666667,-96.9807566666667,4.5,5.3,8,992.24,-11.0,99,0.51,0.0,1021.45,311.7
2019-02-12 11:30,50.6304666666667,-96.9807733333333,5.2,5.8,11,992.22,-10.9,99,0.51,0.0,1021.44,311.7
2019-02-12 11:40,50.63047,-96.9807583333333,5.1,5.9,9,992.21,-10.9,99,0.51,0.0,1021.42,311.7
2019-02-12 11:50,50.6304633333333,-96.980775,5.2,6.0,8,992.21,-10.8,99,0.51,0.0,1021.42,311.7
2019-02-12 12:00,50.63045,-96.98076,4.9,5.9,10,992.23,-10.7,99,0.51,0.0,1021.42,142.0
2019-02-12 12:10,50.6304516666667,-96.9807633333333,4.6,5.3,9,992.25,-10.7,99,0.51,0.0,1021.43,142.0
2019-02-12 12:20,50.6304533333333,-96.9807633333333,4.5,5.2,7,992.25,-10.8,99,0.51,0.0,1021.44,142.0
2019-02-12 12:30,50.6304533333333,-96.9807666666667,4.7,5.3,7,992.21,-10.8,99,0.51,0.0,1021.39,142.0
2019-02-12 12:40,50.6304516666667,-96.9807666666667,4.8,5.6,4,992.21,-10.8,99,0.51,0.0,1021.40,142.0
2019-02-12 12:50,50.6304716666667,-96.980785,5.2,6.2,6,992.22,-10.7,99,0.51,0.0,1021.39,142.0
2019-02-12 13:00,50.6304533333333,-96.980775,5.3,5.8,5,992.24,-10.7,99,0.50,0.0,1021.40,270.0
2019-02-12 13:10,50.6304516666667,-96.98077,5.5,6.4,8,992.25,-10.7,99,0.50,0.0,1021.41,270.0
2019-02-12 13:20,50.6304433333333,-96.980775,5.5,6.2,8,992.21,-10.7,99,0.50,0.0,1021.37,270.0
2019-02-12 13:30,50.6304483333333,-96.98077,5.7,6.4,8,992.17,-10.7,99,0.50,0.0,1021.32,270.0
2019-02-12 13:40,50.6304516666667,-96.9807666666667,5.8,6.5,11,992.20,-10.7,99,0.50,0.0,1021.35,270.0
2019-02-12 13:50,50.63045,-96.9807683333333,5.4,6.0,10,992.17,-10.7,99,0.50,0.0,1021.32,270.0
2019-02-12 14:00,50.630435,-96.9807383333333,5.3,6.0,12,992.16,-10.6,99,0.50,0.0,1021.30,131.6
2019-02-12 14:10,50.6304466666667,-96.9807566666667,5.1,5.8,15,992.18,-10.6,99,0.50,0.0,1021.31,131.6
2019-02-12 14:20,50.630445,-96.98076,5.2,6.2,18,992.20,-10.6,99,0.50,0.0,1021.33,131.6
2019-02-12 14:30,50.6304483333333,-96.9807633333333,5.4,5.9,11,992.26,-10.9,99,0.51,0.0,1021.42,131.6
2019-02-12 14:40,50.6304483333333,-96.9807633333333,5.9,6.6,7,992.27,-11.0,99,0.51,0.0,1021.44,131.6
2019-02-12 14:50,50.63045,-96.980765,6.9,7.6,9,992.29,-10.9,99,0.50,0.0,1021.44,131.6
2019-02-12 15:00,50.63045,-96.980765,7.0,7.7,8,992.30,-11.0,99,0.48,0.0,1021.45,270.0
2019-02-12 15:10,50.63045,-96.9807633333333,7.1,7.7,6,992.24,-11.0,99,0.45,0.0,1021.40,270.0
2019-02-12 15:20,50.63045,-96.980765,6.7,7.5,7,992.18,-10.9,99,0.43,0.0,1021.33,270.0
2019-02-12 15:30,50.63045,-96.9807633333333,7.2,8.5,7,992.09,-10.9,99,0.42,0.0,1021.23,270.0
2019-02-12 15:40,50.6304533333333,-96.9807616666667,6.6,7.5,6,992.12,-10.8,99,0.41,0.0,1021.26,270.0
2019-02-12 15:50,50.6304483333333,-96.9807616666667,5.9,7.1,2,992.17,-10.9,99,0.40,0.0,1021.31,270.0
2019-02-12 16:00,50.63045,-96.9807633333333,6.7,8.3,358,992.13,-11.0,99,0.40,0.0,1021.28,90.0
2019-02-12 16:10,50.63045,-96.9807633333333,7.1,8.2,357,992.10,-10.9,99,0.40,0.0,1021.24,90.0
2019-02-12 16:20,50.63045,-96.9807666666667,6.7,7.9,0,992.07,-10.8,99,0.40,0.0,1021.22,90.0
2019-02-12 16:30,50.6304516666667,-96.9807683333333,6.8,8.3,4,992.09,-10.7,99,0.40,0.0,1021.25,90.0
2019-02-12 16:40,50.6304533333333,-96.98077,6.8,8.1,357,992.04,-10.8,99,0.40,0.0,1021.19,90.0
2019-02-12 16:50,50.6304516666667,-96.98077,6.6,8.2,359,992.01,-10.8,99,0.41,0.0,1021.17,90.0
2019-02-12 17:00,50.6304516666667,-96.98077,6.8,8.1,360,991.93,-10.7,99,0.42,0.0,1021.08,317.0
2019-02-12 17:10,50.6304533333333,-96.98077,7.0,8.3,359,991.81,-10.5,99,0.43,0.0,1020.95,317.0
2019-02-12 17:20,50.6304516666667,-96.98077,7.2,8.5,5,991.82,-10.4,99,0.44,0.0,1020.94,317.0
2019-02-12 17:30,50.6304516666667,-96.98077,6.6,7.8,2,991.81,-10.3,98,0.46,0.0,1020.92,317.0
2019-02-12 17:40,50.6304516666667,-96.98077,6.8,7.9,359,991.82,-10.1,97,0.47,0.0,1020.93,317.0
2019-02-12 17:50,50.6304516666667,-96.98077,6.6,7.9,2,991.72,-10.0,96,0.47,0.0,1020.82,317.0
2019-02-12 18:00,50.6304516666667,-96.9807716666667,6.8,7.9,3,991.63,-9.9,95,0.48,0.0,1020.73,270.0
2019-02-12 18:10,50.63045,-96.9807716666667,6.6,7.8,5,991.55,-9.9,95,0.48,0.0,1020.63,270.0
2019-02-12 18:20,50.63045,-96.9807716666667,7.2,8.2,8,991.57,-9.9,95,0.48,0.0,1020.65,270.0
2019-02-12 18:30,50.63045,-96.9807716666667,7.3,8.2,7,991.44,-10.0,95,0.49,0.0,1020.52,270.0
2019-02-12 18:40,50.63043,-96.980775,6.9,7.8,6,991.38,-9.9,96,0.49,0.0,1020.46,270.0
2019-02-12 18:50,50.63044,-96.980775,6.9,8.1,12,991.33,-9.8,96,0.50,0.0,1020.39,270.0
2019-02-12 19:00,50.6304433333333,-96.9807733333333,7.0,8.0,11,991.26,-9.7,95,0.51,0.0,1020.31,360.0
2019-02-12 19:10,50.6304483333333,-96.9807683333333,6.8,7.6,9,991.18,-9.7,95,0.51,0.0,1020.22,360.0
2019-02-12 19:20,50.6304533333333,-96.98077,6.7,7.5,11,991.05,-9.7,96,0.51,0.0,1020.07,360.0
2019-02-12 19:30,50.6304516666667,-96.98077,6.4,7.5,12,990.97,-9.5,95,0.51,0.0,1019.98,360.0
2019-02-12 19:40,50.63045,-96.9807666666667,6.5,7.4,11,990.84,-9.5,95,0.51,0.0,1019.83,360.0
2019-02-12 19:50,50.6304516666667,-96.9807666666667,6.4,7.4,8,990.74,-9.5,95,0.51,0.0,1019.73,360.0
2019-02-12 20:00,50.6304266666667,-96.9807383333333,6.4,7.4,10,990.61,-9.5,95,0.51,0.0,1019.60,155.7
2019-02-12 20:10,50.6304483333333,-96.980765,6.1,7.2,13,990.52,-9.6,96,0.52,0.0,1019.51,155.7
2019-02-12 20:20,50.6304466666667,-96.98076,5.7,6.5,8,990.37,-9.7,96,0.52,0.0,1019.37,155.7
2019-02-12 20:30,50.6304483333333,-96.980745,5.1,6.3,6,990.36,-9.7,96,0.52,0.0,1019.35,155.7
2019-02-12 20:40,50.6304483333333,-96.9807483333333,6.0,6.7,10,990.35,-9.6,95,0.52,0.0,1019.33,155.7
2019-02-12 20:50,50.63045,-96.98075,5.9,6.8,7,990.29,-9.7,96,0.51,0.0,1019.26,155.7
2019-02-12 21:00,50.6304516666667,-96.9807533333333,6.2,7.0,8,990.26,-9.7,96,0.52,0.0,1019.23,90.0
2019-02-12 21:10,50.63045,-96.9807533333333,5.8,6.7,7,990.21,-9.7,96,0.51,0.0,1019.18,90.0
2019-02-12 21:20,50.63045,-96.980755,5.8,6.5,8,990.29,-9.6,95,0.51,0.0,1019.25,90.0
2019-02-12 21:30,50.6304633333333,-96.9807683333333,5.9,6.8,5,990.33,-9.8,96,0.51,0.0,1019.30,90.0
2019-02-12 21:40,50.6304583333333,-96.980765,5.1,6.4,359,990.33,-10.0,97,0.50,0.0,1019.31,90.0
2019-02-12 21:50,50.63045,-96.98076,4.8,5.7,4,990.27,-9.8,96,0.51,0.0,1019.24,90.0
2019-02-12 22:00,50.63045,-96.9807483333333,4.4,5.0,3,990.33,-9.8,96,0.51,0.0,1019.31,42.8
2019-02-12 22:10,50.6304483333333,-96.9807616666667,4.5,5.3,1,990.41,-10.0,96,0.51,0.0,1019.41,42.8
2019-02-12 22:20,50.6304483333333,-96.9807666666667,4.0,4.5,355,990.53,-9.9,96,0.51,0.0,1019.52,42.8
2019-02-12 22:30,50.630445,-96.9807633333333,3.0,3.8,350,990.65,-9.8,96,0.50,0.0,1019.63,42.8
2019-02-12 22:40,50.6304483333333,-96.9807616666667,2.6,3.2,358,990.58,-9.5,96,0.50,0.0,1019.55,42.8
2019-02-12 22:50,50.63045,-96.9807683333333,2.9,3.4,10,990.50,-9.6,96,0.49,0.0,1019.47,42.8
2019-02-12 23:00,50.63045,-96.9807666666667,2.2,3.0,1,990.45,-9.7,97,0.50,0.0,1019.43,335.7
2019-02-12 23:10,50.63045,-96.9807683333333,2.2,3.0,338,990.46,-9.9,98,0.51,0.0,1019.44,335.7
2019-02-12 23:20,50.63045,-96.9807666666667,2.3,3.0,314,990.48,-9.4,98,0.50,0.0,1019.45,335.7
2019-02-12 23:30,50.63045,-96.9807666666667,2.5,3.2,292,990.53,-9.2,97,0.49,0.0,1019.50,335.7
